Brownsville, TX

4:07 PM CDT on August 28, 2016 (GMT -0500)
Brownsville-South Padre I International

Weather History for KBRO - October, 2012

Change the Weather History Date:

Wednesday, October 24, 2012

  Actual Average Record
Temperature  
Mean Temperature 81 °F 75 °F  
Max Temperature 91 °F 85 °F 93 °F (1893)
Min Temperature 70 °F 65 °F 48 °F (1917)
Degree Days  
Heating Degree Days 0 0  
Month to date heating degree days 0 0  
Since 1 July heating degree days 0 0  
Cooling Degree Days 16 10  
Month to date cooling degree days 374 289  
Year to date cooling degree days 4386 3700  
Growing Degree Days 30 (Base 50)    
Moisture  
Dew Point 68 °F    
Average Humidity 67    
Maximum Humidity 90    
Minimum Humidity 44    
Precipitation  
Precipitation 0.00 in 0.11 in 3.54 in (1884)
Month to date precipitation 0.80 3.13  
Year to date precipitation 20.92 23.86  
Sea Level Pressure  
Sea Level Pressure 29.91 in    
Wind  
Wind Speed 7 mph (SE)    
Max Wind Speed 17 mph    
Max Gust Speed 21 mph    
Visibility 10 miles    
Events      
T = Trace of Precipitation, MM = Missing Value Source: NWS Daily Summary

Daily Weather History Graph

Daily Weather History Graph

Search for Another Location

Airport or City:

Trip Planner

Search our weather history database for the weather conditions in past years. The results will help you decide how hot, cold, wet, or windy it might be!

Date:

Astronomy

Oct. 24, 2012 Rise Set
Actual Time 7:33 AM CDT 6:53 PM CDT
Civil Twilight 7:10 AM CDT 7:16 PM CDT
Nautical Twilight 6:43 AM CDT 7:44 PM CDT
Astronomical Twilight 6:16 AM CDT 8:10 PM CDT
Moon 3:46 PM CDT (10/24) 2:57 AM CDT (10/24)
Length of Visible Light 12h 06m
Length of Day
11h 19m
Waxing Gibbous, 76% of the Moon is Illuminated
Oct 24
Waxing Gibbous
Oct 29
Full
Nov 6
Last Quarter
Nov 13
New
Nov 20
First Quarter

Hourly Weather History & Observations

Time (CDT) Temp. Heat Index Dew Point Humidity Pressure Visibility Wind Dir Wind Speed Gust Speed Precip Events Conditions
12:53 AM 72.0 °F - 68.0 °F 87% 29.94 in 10.0 mi ESE 4.6 mph - N/A   Clear
1:53 AM 72.0 °F - 68.0 °F 87% 29.93 in 10.0 mi SE 4.6 mph - N/A   Partly Cloudy
2:53 AM 72.0 °F - 66.9 °F 84% 29.92 in 10.0 mi SSE 4.6 mph - N/A   Clear
3:53 AM 72.0 °F - 66.9 °F 84% 29.91 in 10.0 mi SE 3.5 mph - N/A   Partly Cloudy
4:53 AM 71.1 °F - 66.9 °F 87% 29.91 in 10.0 mi SE 4.6 mph - N/A   Clear
5:53 AM 71.1 °F - 66.9 °F 87% 29.91 in 10.0 mi ESE 3.5 mph - N/A   Partly Cloudy
6:53 AM 71.1 °F - 66.9 °F 87% 29.93 in 10.0 mi Calm Calm - N/A   Partly Cloudy
7:53 AM 71.1 °F - 66.9 °F 87% 29.94 in 10.0 mi SE 3.5 mph - N/A   Clear
8:53 AM 77.0 °F - 70.0 °F 79% 29.94 in 10.0 mi SE 4.6 mph - N/A   Clear
9:53 AM 82.9 °F 86.5 °F 69.1 °F 63% 29.96 in 10.0 mi SSE 6.9 mph - N/A   Clear
10:53 AM 86.0 °F 88.8 °F 66.9 °F 53% 29.95 in 10.0 mi SE 13.8 mph - N/A   Scattered Clouds
11:53 AM 87.1 °F 89.9 °F 66.9 °F 51% 29.95 in 10.0 mi SSE 11.5 mph - N/A   Partly Cloudy
12:53 PM 89.1 °F 91.3 °F 66.0 °F 46% 29.93 in 10.0 mi SSE 12.7 mph - N/A   Partly Cloudy
1:53 PM 90.0 °F 92.4 °F 66.0 °F 45% 29.89 in 10.0 mi SSE 12.7 mph 17.3 mph N/A   Clear
2:53 PM 89.1 °F 91.0 °F 64.9 °F 45% 29.87 in 10.0 mi SSE 11.5 mph - N/A   Partly Cloudy
3:53 PM 89.1 °F 92.9 °F 68.0 °F 50% 29.86 in 10.0 mi SSE 10.4 mph - N/A   Scattered Clouds
4:53 PM 86.0 °F 88.8 °F 66.9 °F 53% 29.86 in 10.0 mi ESE 12.7 mph 19.6 mph N/A   Scattered Clouds
5:53 PM 84.0 °F 87.0 °F 68.0 °F 58% 29.86 in 10.0 mi SE 11.5 mph - N/A   Partly Cloudy
6:53 PM 81.0 °F 84.1 °F 69.1 °F 67% 29.87 in 10.0 mi SE 10.4 mph - N/A   Clear
7:53 PM 78.1 °F - 70.0 °F 76% 29.88 in 10.0 mi SE 4.6 mph - N/A   Clear
8:53 PM 75.9 °F - 69.1 °F 79% 29.88 in 10.0 mi ESE 4.6 mph - N/A   Clear
9:53 PM 75.0 °F - 70.0 °F 84% 29.89 in 10.0 mi ESE 4.6 mph - N/A   Clear
10:53 PM 75.0 °F - 69.1 °F 82% 29.89 in 10.0 mi ESE 6.9 mph - N/A   Clear
11:53 PM 72.0 °F - 68.0 °F 87% 29.88 in 10.0 mi SE 4.6 mph - N/A   Clear